Location: *
(44.9308°N, 123.0197°W)
Time: 08:59:53
(UTC+00:00)

Daily predictions for brighter satellites

Satellite Brightness Start Highest point End
(mag) Time Altitude Azimuth Time Altitude Azimuth Time Altitude Azimuth
Landsat 5 3.9 12:03:30 32° WSW 12:03:38 32° W 12:07:08 10° NNW
Cosmos 1125 Rocket 4.3 12:03:30 25° WSW 12:05:38 35° WNW 12:10:30 10° N
Cosmos 2263 Rocket 2.9 12:00:19 10° S 12:05:47 52° ESE 12:11:18 10° NE
Cosmos 1300 Rocket 3.6 12:02:06 10° NNW 12:06:20 55° W 12:10:20 11° S
BREEZE-M DEB (TANK) 3.5 12:03:57 10° WNW 12:08:21 30° SW 12:11:54 10° SSE
Cosmos 389 Rocket 3.4 12:08:30 29° W 12:08:56 30° WNW 12:12:06 10° N
STARLINK-1043 3.7 12:07:08 30° WSW 12:09:04 68° NNW 12:13:13 10° NE
STARLINK-1065 3.7 12:07:30 29° WSW 12:09:27 68° NNW 12:13:35 10° NE
Cosmos 1689 Rocket 3.1 12:07:58 10° SSE 12:10:52 49° ENE 12:13:46 10° N
Meteor 1-12 Rocket 4.4 12:06:34 10° NNW 12:12:25 59° W 12:18:07 10° S
STARLINK-43 3.4 12:10:10 20° WNW 12:12:29 53° SW 12:16:05 10° SE
Meteor 1-4 Rocket 2.6 12:12:33 22° SSW 12:14:48 62° WNW 12:18:32 10° N
Cosmos 2221 Rocket 4.3 12:15:11 24° WSW 12:17:06 35° WNW 12:21:11 10° N
Cosmos 2297 Rocket 3.8 12:14:33 15° W 12:17:20 21° NW 12:21:32 10° N
PSLV R/B 3.5 12:13:34 10° NNE 12:17:59 87° WNW 12:22:22 10° SSW
CZ-2C R/B 2.8 12:14:22 10° NNE 12:18:53 59° ESE 12:23:24 10° S
STARLINK-1063 3.9 12:16:41 24° WSW 12:19:03 60° NNW 12:23:09 10° NE
Okean 2 Rocket 3.9 12:18:33 10° NNW 12:22:33 32° W 12:25:43 14° SSW
STARLINK-1064 3.9 12:21:29 21° W 12:24:03 56° NNW 12:28:09 10° NE
Cosmos 1378 Rocket 3.5 12:19:56 10° S 12:24:16 90° ENE 12:28:41 10° N
Cosmos 2151 Rocket 3.9 12:20:16 10° NNW 12:24:26 43° W 12:28:34 10° SSW
ADEOS II 3.8 12:22:48 10° NNW 12:25:55 16° WNW 12:28:03 13° W
STARLINK-22 4.4 12:23:13 10° NW 12:26:15 36° NNE 12:29:17 10° E
USA 234 3.3 12:22:25 10° SE 12:28:59 88° NE 12:35:34 10° NW
CBERS 1 LM4 rocket 4.5 12:24:03 10° N 12:28:59 68° WNW 12:34:06 10° SSW
STARLINK-1041 4.0 12:26:15 19° W 12:29:02 53° NNW 12:33:06 10° NE
Meteor 2-4 Rocket 4.4 12:27:39 15° SW 12:32:04 37° WNW 12:37:30 10° N
STARLINK-1038 4.1 12:31:01 17° W 12:34:01 50° NNW 12:38:04 10° NE
ARIANE 5 R/B 4.1 12:32:01 10° NNW 12:35:32 19° WNW 12:38:17 13° W
BREEZE-M DEB (TANK) 1.7 12:33:43 17° W 12:35:55 58° NNW 12:37:59 10° ENE
IDEFIX/ARIANE 42P 3.2 12:32:49 10° N 12:37:32 36° WNW 12:41:57 11° SW
STARLINK-1046 4.2 12:35:49 15° W 12:39:01 47° NNW 12:43:03 10° NE
Cosmos 2195 Rocket 4.5 12:36:30 10° SSW 12:42:38 72° W 12:48:54 10° N
Cosmos 1378 3.8 12:39:00 10° S 12:42:39 59° E 12:46:21 10° NNE
STARLINK-41 3.8 12:39:38 10° NW 12:42:44 50° NNE 12:45:50 10° ESE
STARLINK 1040 3.2 12:40:31 10° NW 12:43:13 55° NNE 12:45:54 10° ESE
H-2A R/B 4.1 12:39:36 10° NNE 12:43:18 34° E 12:46:51 10° SSE
STARLINK-1039 4.3 12:40:37 13° W 12:44:02 45° NNW 12:48:02 10° NE
Cosmos 2227 Rocket 4.1 12:41:14 10° WNW 12:44:33 16° NW 12:47:53 10° N
CENTAUR R/B 3.5 12:42:33 12° W 12:47:51 37° NW 12:54:30 10° NNE
BREEZE M DEB (TANK) 3.1 12:45:51 13° W 12:47:53 48° N 12:52:37 10° ENE
Okean 2 4.2 12:44:13 10° S 12:48:13 54° E 12:52:14 10° NNE
Cosmos 1627 Rocket 4.4 12:42:09 10° SSW 12:48:15 72° W 12:54:23 10° N
Cosmos 2227 4.3 12:43:02 10° SW 12:48:36 62° WNW 12:54:12 10° NNE
STARLINK-1045 4.4 12:45:22 12° W 12:49:01 42° NNW 12:52:59 10° NE
Cosmos 1484 Rocket 4.0 12:45:36 10° NNE 12:49:15 43° E 12:52:49 10° S
Lacrosse 5 rocket 3.8 12:48:38 10° NNW 12:51:28 18° NNE 12:54:24 10° ENE
Cosmos 1943 3.2 12:46:43 10° NNW 12:52:25 69° WSW 12:58:03 10° SSE
STARLINK-42 3.2 12:50:19 10° NW 12:53:32 71° NNE 12:56:44 10° ESE
PAYLOAD A 4.3 12:48:24 10° N 12:53:41 57° WNW 12:58:47 10° SSW
STARLINK-1050 4.5 12:50:12 10° W 12:54:04 40° NNW 12:58:01 10° NE
CZ-4B R/B 4.1 12:50:13 10° NNE 12:54:06 68° ESE 12:57:47 10° S
Cosmos 1805 3.2 12:52:19 10° N 12:56:13 89° E 13:00:06 10° S
SeaSat 1 2.4 12:52:01 10° SSE 12:56:57 82° WSW 13:01:56 10° NNW
SJ-6F 4.4 12:53:24 10° N 12:57:32 69° WNW 13:01:40 10° SSW
Meteor 2-13 Rocket 4.5 12:52:34 10° S 12:58:37 86° W 13:04:43 10° N
ADEOS 3.8 12:55:57 10° N 13:01:02 53° WNW 13:06:05 10° SW
Shenzhou-11 Module 3.4 13:00:55 10° SW 13:03:00 22° SSE 13:05:05 10° ESE
Okean 1 Rocket 3.7 13:01:11 10° NNW 13:05:11 35° W 13:09:11 10° SSW
PSLV R/B 4.1 13:03:45 10° S 13:07:52 54° W 13:12:00 10° NNW
STARLINK-61 4.5 13:05:40 10° NW 13:09:28 47° NNE 13:13:14 10° E
Cosmos 1975 Rocket 3.1 13:05:16 10° S 13:09:36 85° W 13:14:03 10° N
Cosmos 1417 Rocket 4.5 13:05:16 10° N 13:11:26 84° W 13:17:33 10° S
